Starlink 5503

operational
NORAD ID: 57257 Int'l Des: 2023-094 Owner: SPXS Country: US Constellation: starlink
LEOCIRCULAR

Über Starlink 5503

Beschreibung wird geladen...

Live-Position

3D-Globus wird geladen...

Nächste Überflüge

Höhenverlauf

Altitude vs Time

uPlot chart will show altitude changes over time

Zweizeiliger Elementsatz

1 57257U 23094AR 25351.68500002 -.00000801 00000-0 -44242-4 0 9992
2 57257 43.0034 102.9694 0001354 268.0274 92.0413 15.02530427135596
Epoch: 17. Dez. 2025 • Age: 18 hours

Aktueller Status

Höhe 561.8 km
Geschwindigkeit 7.59 km/s
Subsatellitenpunkt 36.99°N, 19.59°W
Startdatum 7. Juli 2023
Alter 2.4 years
Typ internet

Technische Details

Klassifizierung Payload
Masse 305.00 kg
Trockenmasse 290.00 kg
Gesamtmasse 305.00 kg
Länge 0.20 m
Durchmesser 2.80 m
Spannweite 9.00 m
Form Box + pan
Hersteller SPXS
Bus-Typ Starlink
Phasenstatus In Orbit
Besitzer/Staat SPXS/US

Große Konstellationen

Loading constellations...